Location: Austin
(30.3000°N, 97.7500°W)
Time: 05:50:29
(UTC-06:00)

USA 215 - Pass Details

Date: 05 February 2026
Orbit: 1098 x 1109 km, 123.0° (Epoch: 10 January)

Event Time Altitude Azimuth Distance (km) Brightness Sun altitude
Rises 06:13:42 0° 134° (SE) 3,916 7.1 -14.5°
Reaches altitude 10° 06:16:10 10° 133° (SE) 2,961 6.4 -14.0°
Maximum altitude 06:22:43 81° 48° (NE) 1,122 3.4 -12.6°
Drops below altitude 10° 06:29:18 10° 321° (NW) 2,972 5.1 -11.2°
Enters shadow 06:30:38 - 321° (NW) 3,486 5.4 -10.9°
